Location: Caltech
(34.1382°N, 118.1253°W)
Time: 20:29:18
(UTC-07:00)

Tiros 1 despin weight - Visible Passes

Search period start: 16 September 2014 00:00
Search period end: 26 September 2014 00:00
Orbit: 601 x 652 km, 48.2° (Epoch: 15 September)

Date Brightness Start Highest point End Pass type
(mag) Time Alt. Az. Time Alt. Az. Time Alt. Az.
16 Sep ? 03:39:36 18° NNE 03:39:36 18° NNE 03:42:08 10° ENE visible
16 Sep ? 05:16:53 11° NW 05:21:19 60° NE 05:25:58 10° ESE visible
17 Sep ? 03:58:53 27° NNE 03:58:53 27° NNE 04:02:39 10° E visible
17 Sep ? 05:36:11 11° WNW 05:40:43 67° SW 05:45:23 10° SE visible
18 Sep ? 04:18:23 46° NE 04:18:23 46° NE 04:22:49 10° ESE visible
18 Sep ? 05:55:52 10° WNW 05:59:56 30° SW 06:04:03 10° SSE visible
18 Sep ? 20:03:35 10° SSE 20:04:00 11° SSE 20:04:00 11° SSE visible
19 Sep ? 04:38:06 77° SE 04:38:06 77° SE 04:42:28 10° SE visible
19 Sep ? 20:20:59 10° SSW 20:23:53 28° SSE 20:23:53 28° SSE visible
20 Sep ? 04:58:00 37° SSW 04:58:00 37° SSW 05:01:28 10° SSE visible
20 Sep ? 20:39:43 10° SW 20:43:35 64° S 20:43:35 64° S visible
21 Sep ? 05:18:01 15° SSW 05:18:01 15° SSW 05:19:28 10° S visible
21 Sep ? 19:18:36 10° S 19:22:03 23° SE 19:25:32 10° E visible
21 Sep ? 20:59:10 10° WSW 21:03:04 51° WNW 21:03:04 51° WNW visible
22 Sep ? 19:36:54 10° SSW 19:41:12 51° SE 19:45:03 13° ENE visible
22 Sep ? 21:19:10 10° W 21:22:20 28° NW 21:22:20 28° NW visible
23 Sep ? 19:56:05 10° WSW 20:00:30 73° NW 20:04:07 15° NE visible
23 Sep ? 21:39:34 10° WNW 21:41:23 17° NW 21:41:23 17° NW visible
24 Sep ? 20:15:52 10° W 20:19:59 37° NNW 20:23:00 17° NNE visible
24 Sep ? 22:00:09 10° NW 22:00:15 10° NW 22:00:15 10° NW visible
25 Sep ? 20:36:06 10° WNW 20:39:39 23° NNW 20:41:44 17° NNE visible
